Weather History for WLFMV - March, 2014

Change the Weather History Date:

Thursday, March 13, 2014

  Actual Average Record
Temperature  
Mean Temperature 51 °F -  
Max Temperature 69 °F - - ()
Min Temperature 33 °F - - ()
Degree Days  
Heating Degree Days 14    
Growing Degree Days 1 (Base 50)    
Moisture  
Dew Point 38 °F    
Average Humidity 69    
Maximum Humidity 93    
Minimum Humidity 28    
Precipitation  
Precipitation 0.00 in - - ()
Sea Level Pressure  
Sea Level Pressure 30.34 in    
Wind  
Wind Speed 1 mph ()    
Max Wind Speed 6 mph    
Max Gust Speed -    
Visibility 6.2 miles    
Events      
T = Trace of Precipitation, MM = Missing Value Source: Averaged Metar Reports

Daily Weather History Graph

Daily Weather History Graph

Search for Another Location

Airport or City:

Trip Planner

Search our weather history database for the weather conditions in past years. The results will help you decide how hot, cold, wet, or windy it might be!

Date:

Astronomy

Mar. 13, 2014 Rise Set
Actual Time 6:56 AM CET 6:43 PM CET
Civil Twilight 6:27 AM CET 7:12 PM CET
Nautical Twilight 5:54 AM CET 7:46 PM CET
Astronomical Twilight 5:20 AM CET 8:20 PM CET
Moon 3:50 PM CET (3/13) 4:59 AM CET (3/13)
Length of Visible Light 12h 44m
Length of Day
11h 47m
Waxing Gibbous, 90% of the Moon is Illuminated
Mar 13
Waxing Gibbous
Mar 16
Full
Mar 24
Last Quarter
Mar 30
New
Apr 7
First Quarter

Hourly Weather History & Observations

Time (CET) Temp. Windchill Dew Point Humidity Pressure Visibility Wind Dir Wind Speed Gust Speed Precip Events Conditions
12:00 AM 42.8 °F - 39.2 °F 87% 30.39 in - Calm Calm - N/A   Unknown
12:30 AM 41.0 °F 39.0 °F 39.2 °F 93% 30.39 in - SSE 3.5 mph - N/A   Unknown
1:00 AM 41.0 °F - 37.4 °F 87% 30.39 in - Calm Calm - N/A   Unknown
1:30 AM 39.2 °F - 37.4 °F 93% 30.39 in - Variable 1.2 mph - N/A   Unknown
2:00 AM 39.2 °F - 35.6 °F 87% 30.39 in - Calm Calm - N/A   Unknown
2:30 AM 39.2 °F - 37.4 °F 93% 30.39 in - East 1.2 mph - N/A   Unknown
3:00 AM 37.4 °F - 35.6 °F 93% 30.39 in - Calm Calm - N/A   Unknown
3:30 AM 37.4 °F - 35.6 °F 93% 30.36 in - Calm Calm - N/A   Unknown
4:00 AM 37.4 °F - 35.6 °F 93% 30.36 in - Calm Calm - N/A   Unknown
4:30 AM 35.6 °F - 33.8 °F 93% 30.36 in - North 2.3 mph - N/A   Scattered Clouds
5:00 AM 35.6 °F - 33.8 °F 93% 30.36 in - Calm Calm - N/A   Partly Cloudy
5:30 AM 37.4 °F - 35.6 °F 93% 30.39 in - Calm Calm - N/A   Unknown
6:00 AM 35.6 °F - 33.8 °F 93% 30.36 in - Calm Calm - N/A   Unknown
6:30 AM 35.6 °F - 33.8 °F 93% 30.36 in - East 2.3 mph - N/A   Unknown
7:00 AM 33.8 °F - 32.0 °F 93% 30.36 in - SSE 2.3 mph - N/A   Unknown
7:30 AM 35.6 °F - 33.8 °F 93% 30.39 in - Calm Calm - N/A   Unknown
8:00 AM 37.4 °F - 35.6 °F 93% 30.39 in - Calm Calm - N/A   Unknown
8:30 AM 42.8 °F - 41.0 °F 93% 30.39 in - Calm Calm - N/A   Unknown
9:00 AM 46.4 °F - 39.2 °F 76% 30.39 in - Variable 1.2 mph - N/A   Unknown
9:30 AM 48.2 °F - 41.0 °F 76% 30.39 in - Variable 3.5 mph - N/A   Unknown
10:00 AM 50.0 °F - 41.0 °F 71% 30.39 in - Variable 2.3 mph - N/A   Unknown
10:30 AM 51.8 °F - 41.0 °F 67% 30.39 in - NNW 3.5 mph - N/A   Unknown
11:00 AM 53.6 °F - 41.0 °F 62% 30.39 in - Variable 3.5 mph - N/A   Unknown
11:30 AM 57.2 °F - 41.0 °F 55% 30.36 in - Variable 3.5 mph - N/A   Unknown
12:00 PM 59.0 °F - 41.0 °F 51% 30.36 in - Variable 2.3 mph - N/A   Unknown
12:30 PM 60.8 °F - 44.6 °F 55% 30.36 in - Variable 2.3 mph - N/A   Unknown
1:00 PM 62.6 °F - 42.8 °F 48% 30.33 in 6.2 mi North 3.5 mph - N/A   Unknown
1:30 PM 64.4 °F - 42.8 °F 45% 30.33 in 6.2 mi Variable 3.5 mph - N/A   Unknown
2:00 PM 68.0 °F - 42.8 °F 40% 30.30 in 6.2 mi Variable 3.5 mph - N/A   Unknown
2:30 PM 66.2 °F - 35.6 °F 32% 30.30 in 6.2 mi NNW 3.5 mph - N/A   Unknown
3:00 PM 68.0 °F - 37.4 °F 33% 30.30 in 6.2 mi Variable 1.2 mph - N/A   Unknown
3:30 PM 68.0 °F - 33.8 °F 28% 30.27 in 6.2 mi West 3.5 mph - N/A   Unknown
4:00 PM 69.8 °F - 35.6 °F 28% 30.27 in 6.2 mi Variable 2.3 mph - N/A   Unknown
4:30 PM 68.0 °F - 37.4 °F 33% 30.27 in 6.2 mi Variable 2.3 mph - N/A   Unknown
5:00 PM 69.8 °F - 37.4 °F 31% 30.27 in 6.2 mi Variable 1.2 mph - N/A   Unknown
5:30 PM 68.0 °F - 35.6 °F 30% 30.27 in 6.2 mi Variable 2.3 mph - N/A   Unknown
6:00 PM 64.4 °F - 35.6 °F 34% 30.27 in 6.2 mi WSW 3.5 mph - N/A   Unknown
6:30 PM 60.8 °F - 37.4 °F 42% 30.30 in 6.2 mi SW 3.5 mph - N/A   Unknown
7:00 PM 57.2 °F - 39.2 °F 51% 30.30 in 6.2 mi SW 5.8 mph - N/A   Unknown
7:30 PM 57.2 °F - 41.0 °F 55% 30.30 in 6.2 mi WSW 5.8 mph - N/A   Unknown
8:00 PM 53.6 °F - 42.8 °F 67% 30.30 in 6.2 mi Variable 2.3 mph - N/A   Unknown
8:30 PM 50.0 °F - 41.0 °F 71% 30.30 in 6.2 mi Calm Calm - N/A   Unknown
9:00 PM 51.8 °F - 42.8 °F 71% 30.30 in 6.2 mi East 4.6 mph - N/A   Unknown
9:30 PM 48.2 °F - 39.2 °F 71% 30.30 in 6.2 mi Variable 2.3 mph - N/A   Unknown
10:00 PM 46.4 °F - 41.0 °F 81% 30.30 in 6.2 mi Calm Calm - N/A   Unknown
10:30 PM 44.6 °F 43.1 °F 39.2 °F 81% 30.30 in 6.2 mi SSE 3.5 mph - N/A   Unknown
11:00 PM 42.8 °F - 39.2 °F 87% 30.30 in 6.2 mi Calm Calm - N/A   Unknown
11:30 PM 44.6 °F - 39.2 °F 81% 30.30 in 6.2 mi Calm Calm - N/A   Unknown